This demonstration page uses our WeatherBlox Daily Observations layout. Learn more.

Left ArrowRight Arrow

41.12389, -100.76542

Hourly Observations for March 27, 2020

Temp ( °F °C ) Dew Point ( °F °C ) Humidity (%) Winds ( mph kmh ) Pressure ( in mb ) Visibility ( mi km ) Precip ( " mm )
12:33 am 00:33 Cloudy 43 6.1 38 3.3 82 82 E 9 15 29.81 1009 10 16 0.00 0.00
12:53 am 00:53 Cloudy 42 5.6 38 3.3 85 85 E 10 17 29.79 1009 10 16 0.00 0.00
1:12 am 01:12 Cloudy 42 5.6 38 3.3 85 85 ESE 7 11 29.81 1010 10 16 0.00 0.00
1:53 am 01:53 Cloudy 42 5.6 38 3.3 85 85 ESE 5 7 29.78 1009 10 16 0.00 0.00
2:53 am 02:53 Cloudy 42 5.6 38 3.3 85 85 Calm 29.78 1008 10 16 0.00 0.00
3:53 am 03:53 Cloudy 42 5.6 38 3.3 85 85 ENE 3 6 29.76 1008 10 16 0.00 0.00
4:53 am 04:53 Cloudy with Light Rain 42 5.6 39 3.9 89 89 Calm 29.76 1008 9 14 0.00 0.00
5:53 am 05:53 Cloudy 42 5.6 39 3.9 89 89 NE 5 7 29.75 1008 9 14 0.00 0.00
6:23 am 06:23 Cloudy 42 5.6 39 3.9 89 89 NNE 6 9 29.77 1008 8 13 0.01 0.25
6:53 am 06:53 Cloudy 42 5.6 39 3.9 89 89 NE 6 9 29.75 1008 10 16 0.01 0.25
7:06 am 07:06 Cloudy 42 5.6 39 3.9 89 89 NE 6 9 29.78 1008 10 16 0.00 0.00
7:44 am 07:44 Cloudy 42 5.6 39 3.9 89 89 ENE 5 7 29.79 1009 7 11 0.00 0.00
7:53 am 07:53 Cloudy with Mist and Fog 42 5.6 40 4.4 92 92 ENE 5 7 29.78 1008 6 10 0.00 0.00
8:43 am 08:43 Cloudy with Light Rain 42 5.6 39 3.9 89 89 NE 6 9 29.80 1009 3 5 0.00 0.00
8:53 am 08:53 Cloudy with Mist and Fog 42 5.6 39 3.9 89 89 NE 7 11 29.78 1009 4 6 0.01 0.25
9:15 am 09:15 Cloudy with Mist and Fog 43 6.1 40 4.4 89 89 NE 6 9 29.80 1009 4 6 0.00 0.00
9:33 am 09:33 Cloudy with Mist and Fog 43 6.1 39 3.9 86 86 NNE 6 9 29.80 1009 5 8 0.00 0.00
9:53 am 09:53 Cloudy 43 6.1 39 3.9 86 86 NE 7 11 29.79 1009 8 13 0.00 0.00
10:53 am 10:53 Cloudy 44 6.7 40 4.4 85 85 ENE 9 15 29.78 1009 7 11 0.00 0.00
11:53 am 11:53 Cloudy 44 6.7 40 4.4 85 85 NE 8 13 29.77 1008 10 16 0.00 0.00
12:53 pm 12:53 Cloudy 45 7.2 41 5 86 86 E 8 13 29.75 1008 8 13 0.00 0.00
1:53 pm 13:53 Cloudy 46 7.8 42 5.6 86 86 E 7 11 29.73 1007 9 14 0.00 0.00
2:18 pm 14:18 Cloudy 46 7.8 42 5.6 86 86 ESE 6 9 29.73 1007 10 16 0.00 0.00
2:53 pm 14:53 Cloudy 47 8.3 42 5.6 83 83 E 8 13 29.70 1006 10 16 0.00 0.00
3:00 pm 15:00 Cloudy 47 8.3 42 5.6 83 83 ENE 6 9 29.70 1006 10 16 0.00 0.00
3:41 pm 15:41 Cloudy with Light Rain 46 7.8 42 5.6 86 86 E 8 13 29.69 1005 10 16 0.00 0.00
3:53 pm 15:53 Cloudy 47 8.3 43 6.1 86 86 E 7 11 29.68 1005 10 16 0.00 0.00
4:07 pm 16:07 Cloudy 47 8.3 43 6.1 86 86 E 7 11 29.68 1005 10 16 0.00 0.00
4:53 pm 16:53 Cloudy 47 8.3 43 6.1 86 86 ESE 9 15 29.66 1004 10 16 0.00 0.00
5:12 pm 17:12 Cloudy 47 8.3 43 6.1 86 86 ESE 9 15 29.67 1005 9 14 0.00 0.00
5:26 pm 17:26 Cloudy with Light Rain 47 8.3 43 6.1 86 86 ESE 9 15 29.67 1005 8 13 0.00 0.00
5:53 pm 17:53 Cloudy 46 7.8 43 6.1 89 89 ESE 9 15 29.67 1005 10 16 0.00 0.00
6:53 pm 18:53 Cloudy 47 8.3 43 6.1 86 86 ESE 8 13 29.67 1005 10 16 0.00 0.00
7:48 pm 19:48 Cloudy 46 8 43 6 87 87 E 6 9 29.68 1005 10 16 0.00 0.00
7:53 pm 19:53 Cloudy 47 8.3 43 6.1 86 86 ESE 6 9 29.68 1005 10 16 0.00 0.00
8:53 pm 20:53 Cloudy 47 8.3 42 5.6 83 83 E 7 11 29.69 1005 10 16 0.00 0.00
9:28 pm 21:28 Cloudy 47 8.3 43 6.1 86 86 E 7 11 29.70 1006 10 16 0.00 0.00
9:53 pm 21:53 Cloudy 46 7.8 42 5.6 86 86 E 10 17 29.67 1005 10 16 0.00 0.00
10:53 pm 22:53 Cloudy with Light Rain 45 7.2 42 5.6 90 90 E 15 24 29.67 1005 10 16 0.04 1.02
11:53 pm 23:53 Cloudy with Rain 44 6.7 41 5 89 89 E 8 13 29.67 1005 7 11 0.05 1.27

Powered by AerisWeather